When you browse on this site, cookies collect data to enhance your experience and personalize the content and advertising you see.
Visit our Privacy Policy to learn more. By continuing to use the site, you agree to this use of cookies and data.
  • In Netherlands
  • List of Countries
  • For 7 days
  • Water Temperature
  • Weather Map
  • Weather Widgets
  • user-avatar
    Login

    Hourly Weather Krasnenkoe

    Today, 20 January, Monday

    Time Temperature Precipitation Wind Pressure Humidity
    00:00 0°C° 0 mm 4 mps 752 mmHg 88%
    01:00 0°C° 0 mm 4 mps 752 mmHg 87%
    02:00 0°C° 0 mm 5 mps 752 mmHg 86%
    03:00 0°C° 0 mm 5 mps 752 mmHg 88%
    04:00 0°C° 0 mm 5 mps 752 mmHg 91%
    05:00 -1°C° 0 mm 5 mps 752 mmHg 93%
    06:00 -1°C° 0.1 mm 4 mps 752 mmHg 94%
    07:00 -1°C° 0.1 mm 4 mps 752 mmHg 95%
    08:00 -1°C° 0.1 mm 4 mps 752 mmHg 96%
    09:00 -1°C° 0.1 mm 4 mps 752 mmHg 96%
    10:00 -1°C° 0.1 mm 4 mps 752 mmHg 95%
    11:00 -1°C° 0.1 mm 4 mps 752 mmHg 95%
    12:00 -1°C° 0.1 mm 4 mps 752 mmHg 95%
    13:00 -1°C° 0.1 mm 5 mps 752 mmHg 95%
    14:00 -1°C° 0.1 mm 5 mps 752 mmHg 95%
    15:00 -1°C° 0 mm 5 mps 752 mmHg 94%
    16:00 -1°C° 0 mm 5 mps 751 mmHg 94%
    17:00 -1°C° 0 mm 5 mps 751 mmHg 94%
    18:00 -1°C° 0 mm 5 mps 750 mmHg 90%
    19:00 -1°C° 0 mm 5 mps 750 mmHg 86%
    20:00 -1°C° 0 mm 5 mps 750 mmHg 82%
    21:00 -1°C° 0 mm 5 mps 749 mmHg 82%
    22:00 -1°C° 0 mm 5 mps 749 mmHg 81%
    23:00 -1°C° 0 mm 5 mps 748 mmHg 80%

    Tomorrow, 21 January, Tuesday

    Time Temperature Precipitation Wind Pressure Humidity
    00:00 -1°C° 0 mm 5 mps 747 mmHg 84%
    01:00 -2°C° 0 mm 5 mps 747 mmHg 88%
    02:00 -2°C° 0 mm 5 mps 746 mmHg 92%
    03:00 -1°C° 0.4 mm 5 mps 745 mmHg 91%
    04:00 -2°C° 0.4 mm 6 mps 743 mmHg 90%
    05:00 -1°C° 0.4 mm 6 mps 742 mmHg 88%
    06:00 -1°C° 0.4 mm 6 mps 741 mmHg 88%
    07:00 +1°C° 0.4 mm 6 mps 741 mmHg 88%
    08:00 +1°C° 0.4 mm 6 mps 740 mmHg 88%
    09:00 +2°C° 0.1 mm 6 mps 740 mmHg 87%
    10:00 +3°C° 0.1 mm 6 mps 739 mmHg 86%
    11:00 +3°C° 0.1 mm 6 mps 738 mmHg 84%
    12:00 +3°C° 0 mm 6 mps 738 mmHg 84%
    13:00 +3°C° 0 mm 5 mps 738 mmHg 83%
    14:00 +3°C° 0 mm 5 mps 738 mmHg 83%
    15:00 +3°C° 0.2 mm 5 mps 737 mmHg 84%
    16:00 +3°C° 0.2 mm 5 mps 736 mmHg 86%
    17:00 +3°C° 0.2 mm 5 mps 736 mmHg 88%
    18:00 +2°C° 0.5 mm 5 mps 735 mmHg 87%
    19:00 +1°C° 0.5 mm 5 mps 735 mmHg 86%
    20:00 +1°C° 0.5 mm 5 mps 735 mmHg 85%
    21:00 -1°C° 0 mm 6 mps 735 mmHg 81%
    22:00 -1°C° 0 mm 6 mps 735 mmHg 78%
    23:00 -2°C° 0 mm 6 mps 735 mmHg 74%

    Day after tomorrow, 22 January, Wednesday

    Time Temperature Precipitation Wind Pressure Humidity
    00:00 -3°C° 0 mm 6 mps 735 mmHg 74%
    01:00 -3°C° 0 mm 6 mps 735 mmHg 74%
    02:00 -4°C° 0 mm 5 mps 735 mmHg 75%
    03:00 -4°C° 0 mm 5 mps 735 mmHg 78%
    04:00 -4°C° 0 mm 5 mps 734 mmHg 81%
    05:00 -4°C° 0 mm 5 mps 733 mmHg 84%
    06:00 -4°C° 0.2 mm 6 mps 733 mmHg 83%
    07:00 -4°C° 0.2 mm 6 mps 732 mmHg 83%
    08:00 -4°C° 0.2 mm 6 mps 732 mmHg 83%
    09:00 -4°C° 0.2 mm 6 mps 732 mmHg 78%
    10:00 -4°C° 0.2 mm 6 mps 732 mmHg 73%
    11:00 -2°C° 0.2 mm 5 mps 732 mmHg 68%
    12:00 -4°C° 0 mm 5 mps 732 mmHg 68%
    13:00 -4°C° 0 mm 5 mps 732 mmHg 68%
    14:00 -4°C° 0 mm 5 mps 732 mmHg 68%
    15:00 -4°C° 0 mm 5 mps 732 mmHg 69%
    16:00 -5°C° 0 mm 5 mps 732 mmHg 71%
    17:00 -5°C° 0 mm 5 mps 732 mmHg 73%
    18:00 -5°C° 0 mm 5 mps 732 mmHg 74%
    19:00 -5°C° 0 mm 6 mps 733 mmHg 75%
    20:00 -6°C° 0 mm 6 mps 733 mmHg 76%
    21:00 -6°C° 0 mm 6 mps 734 mmHg 75%
    22:00 -8°C° 0 mm 6 mps 734 mmHg 75%
    23:00 -8°C° 0 mm 6 mps 735 mmHg 74%

    23 January, Thursday

    Time Temperature Precipitation Wind Pressure Humidity
    00:00 -9°C° 0 mm 6 mps 736 mmHg 71%
    01:00 -9°C° 0 mm 6 mps 736 mmHg 67%
    02:00 -9°C° 0 mm 6 mps 737 mmHg 64%
    03:00 -10°C° 0 mm 6 mps 738 mmHg 64%
    04:00 -10°C° 0 mm 6 mps 738 mmHg 64%
    05:00 -10°C° 0 mm 6 mps 739 mmHg 64%
    06:00 -10°C° 0 mm 6 mps 739 mmHg 63%
    07:00 -10°C° 0 mm 6 mps 740 mmHg 62%
    08:00 -11°C° 0 mm 6 mps 740 mmHg 61%
    09:00 -11°C° 0 mm 6 mps 741 mmHg 60%
    10:00 -11°C° 0 mm 6 mps 742 mmHg 59%
    11:00 -11°C° 0 mm 6 mps 742 mmHg 58%
    12:00 -10°C° 0 mm 5 mps 743 mmHg 58%
    13:00 -10°C° 0 mm 5 mps 743 mmHg 57%
    14:00 -9°C° 0 mm 4 mps 744 mmHg 57%
    15:00 -9°C° 0 mm 4 mps 744 mmHg 59%
    16:00 -9°C° 0 mm 3 mps 744 mmHg 62%
    17:00 -9°C° 0 mm 3 mps 745 mmHg 65%
    18:00 -8°C° 0 mm 2 mps 745 mmHg 67%
    19:00 -8°C° 0 mm 2 mps 744 mmHg 68%
    20:00 -8°C° 0 mm 2 mps 744 mmHg 70%
    21:00 -7°C° 0 mm 2 mps 744 mmHg 69%
    22:00 -8°C° 0 mm 3 mps 743 mmHg 68%
    23:00 -7°C° 0 mm 3 mps 743 mmHg 66%

    24 January, Friday

    Time Temperature Precipitation Wind Pressure Humidity
    00:00 -8°C° 0.2 mm 4 mps 742 mmHg 75%
    01:00 -7°C° 0.2 mm 4 mps 740 mmHg 84%
    02:00 -7°C° 0.2 mm 5 mps 739 mmHg 93%
    03:00 -6°C° 0.4 mm 5 mps 738 mmHg 93%
    04:00 -6°C° 0.4 mm 5 mps 737 mmHg 93%
    05:00 -5°C° 0.4 mm 5 mps 736 mmHg 92%
    06:00 -5°C° 0.2 mm 5 mps 735 mmHg 92%
    07:00 -4°C° 0.2 mm 5 mps 735 mmHg 92%
    08:00 -2°C° 0.2 mm 4 mps 734 mmHg 91%
    09:00 -2°C° 0.1 mm 5 mps 734 mmHg 87%
    10:00 -1°C° 0.1 mm 5 mps 734 mmHg 83%
    11:00 -2°C° 0.1 mm 6 mps 735 mmHg 79%
    12:00 -2°C° 0 mm 6 mps 735 mmHg 76%
    13:00 -1°C° 0 mm 5 mps 735 mmHg 74%
    14:00 -1°C° 0 mm 5 mps 736 mmHg 72%
    15:00 -2°C° 0 mm 5 mps 736 mmHg 74%
    16:00 -2°C° 0 mm 5 mps 737 mmHg 77%
    17:00 -4°C° 0 mm 5 mps 738 mmHg 80%
    18:00 -3°C° 0 mm 4 mps 738 mmHg 82%
    19:00 -4°C° 0 mm 4 mps 738 mmHg 85%
    20:00 -4°C° 0 mm 3 mps 739 mmHg 87%
    21:00 -4°C° 0 mm 3 mps 739 mmHg 88%
    22:00 -4°C° 0 mm 3 mps 739 mmHg 90%
    23:00 -4°C° 0 mm 3 mps 739 mmHg 91%

    25 January, Saturday

    Time Temperature Precipitation Wind Pressure Humidity
    00:00 -4°C° 0 mm 3 mps 739 mmHg 91%
    01:00 -3°C° 0 mm 2 mps 739 mmHg 91%
    02:00 -3°C° 0 mm 2 mps 739 mmHg 92%
    03:00 -3°C° 0 mm 2 mps 739 mmHg 93%
    04:00 -4°C° 0 mm 2 mps 738 mmHg 93%
    05:00 -2°C° 0 mm 1 mps 738 mmHg 94%
    06:00 -4°C° 0 mm 2 mps 738 mmHg 94%
    07:00 -3°C° 0 mm 2 mps 738 mmHg 94%
    08:00 -3°C° 0 mm 2 mps 737 mmHg 93%
    09:00 -2°C° 0.1 mm 2 mps 737 mmHg 93%
    10:00 -1°C° 0.1 mm 2 mps 737 mmHg 93%
    11:00 -1°C° 0.1 mm 3 mps 737 mmHg 93%
    12:00 0°C° 0 mm 3 mps 737 mmHg 92%
    13:00 0°C° 0 mm 3 mps 737 mmHg 91%
    14:00 0°C° 0 mm 4 mps 737 mmHg 90%
    15:00 +1°C° 0 mm 3 mps 737 mmHg 90%
    16:00 0°C° 0 mm 3 mps 738 mmHg 89%
    17:00 0°C° 0 mm 3 mps 738 mmHg 89%
    18:00 -1°C° 0 mm 3 mps 738 mmHg 90%
    19:00 -1°C° 0 mm 3 mps 739 mmHg 91%
    20:00 -2°C° 0 mm 2 mps 739 mmHg 92%
    21:00 -2°C° 0 mm 2 mps 739 mmHg 93%
    22:00 -2°C° 0 mm 2 mps 739 mmHg 94%
    23:00 -3°C° 0 mm 2 mps 740 mmHg 95%
    Show more